Zurück zum Katalog

KITSAT 3

AktivWissenschaftSSO
NORAD 25756·PAYLOAD·🇰🇷 South Korea

Gestartet May 26, 1999 von Satish Dhawan Space Centre

Loading…

Nächste Überflüge (nächste 24 Stunden)

TLE

AktuellSource: Space-Track

Epoche: Sep 14, 2026, 21:41 UTC

1 25756U 99029A   26257.90401712  .00000129  00000-0  40626-4 0  9994
2 25756  98.6107 296.3509 0012993 353.2202   6.8817 14.55838003448084

Verfolge KITSAT 3 in Echtzeit mit AllMySat

Download on the App Store